Volver al catálogo

FREGAT DEB

LostUNKNOWN
NORAD 46526·DEBRIS·🇷🇺 Russia

Lanzado Jul 18, 2011 desde Baikonur Cosmodrome

Loading…

Próximos Pases (próximas 24 horas)

TLE

ObsoletoSource: Space-Track

Época: Nov 5, 2020, 19:03 UTC

1 46526U 11037ME  20310.79404301 -.00000228  00000-0 -51572-3 0  9996
2 46526  51.4790  99.7878 2182855 236.7045 100.5682  9.95317613 10509

Sigue FREGAT DEB en tiempo real con AllMySat

Download on the App Store